TimeEST,TemperatureF,Dew PointF,Humidity,Sea Level PressureIn,VisibilityMPH,Wind Direction,Wind SpeedMPH,Gust SpeedMPH,PrecipitationIn,Events,Conditions,WindDirDegrees,DateUTC
12:13 AM,21.2,15.4,78,30.09,10.0,East,3.5,-,N/A,,Clear,100,2013-03-05 05:13:00
12:33 AM,21.2,15.4,78,30.09,10.0,East,3.5,-,N/A,,Clear,90,2013-03-05 05:33:00
12:53 AM,19.2,15.4,85,30.09,10.0,East,3.5,-,N/A,,Clear,80,2013-03-05 05:53:00
1:13 AM,17.8,14.4,86,30.09,10.0,East,4.6,-,N/A,,Clear,80,2013-03-05 06:13:00
1:33 AM,19.2,14.2,81,30.09,10.0,East,6.9,-,N/A,,Clear,80,2013-03-05 06:33:00
1:53 AM,21.0,14.9,77,30.08,10.0,East,8.1,-,N/A,,Clear,80,2013-03-05 06:53:00
2:13 AM,21.4,14.9,76,30.08,10.0,East,6.9,-,N/A,,Clear,90,2013-03-05 07:13:00
2:33 AM,20.7,14.9,78,30.08,10.0,ENE,6.9,-,N/A,,Clear,70,2013-03-05 07:33:00
2:53 AM,19.6,14.4,80,30.07,10.0,ENE,6.9,-,N/A,,Clear,70,2013-03-05 07:53:00
3:13 AM,19.4,14.4,81,30.07,10.0,ENE,6.9,-,N/A,,Clear,70,2013-03-05 08:13:00
3:33 AM,18.9,14.5,83,30.06,10.0,ENE,8.1,-,N/A,,Clear,70,2013-03-05 08:33:00
3:53 AM,19.2,14.5,82,30.05,10.0,East,8.1,-,N/A,,Clear,80,2013-03-05 08:53:00
4:13 AM,19.0,14.4,82,30.04,10.0,East,9.2,-,N/A,,Clear,80,2013-03-05 09:13:00
4:33 AM,19.4,14.4,81,30.04,10.0,East,8.1,-,N/A,,Clear,90,2013-03-05 09:33:00
4:53 AM,19.4,14.0,80,30.04,10.0,East,9.2,-,N/A,,Clear,90,2013-03-05 09:53:00
5:13 AM,19.0,14.0,81,30.03,10.0,East,8.1,-,N/A,,Clear,80,2013-03-05 10:13:00
5:33 AM,19.2,14.0,80,30.03,10.0,East,5.8,-,N/A,,Clear,90,2013-03-05 10:33:00
5:53 AM,19.2,14.0,80,30.03,10.0,East,8.1,-,N/A,,Clear,80,2013-03-05 10:53:00
6:13 AM,19.0,14.0,81,30.03,10.0,East,8.1,-,N/A,,Clear,90,2013-03-05 11:13:00
6:33 AM,18.9,14.0,81,30.04,10.0,East,6.9,-,N/A,,Clear,90,2013-03-05 11:33:00
6:53 AM,18.5,14.2,83,30.03,10.0,ENE,9.2,-,N/A,,Clear,70,2013-03-05 11:53:00
7:13 AM,19.4,14.5,81,30.03,10.0,East,8.1,-,N/A,,Clear,90,2013-03-05 12:13:00
8:13 AM,21.0,17.6,87,30.03,10.0,East,10.4,19.6,N/A,,Overcast,80,2013-03-05 13:13:00
8:33 AM,21.4,18.5,89,30.02,10.0,East,15.0,20.7,N/A,,Overcast,100,2013-03-05 13:33:00
8:53 AM,22.1,19.4,89,30.02,10.0,East,12.7,20.7,N/A,,Overcast,90,2013-03-05 13:53:00
9:13 AM,22.6,19.9,89,30.02,10.0,East,13.8,20.7,N/A,,Overcast,90,2013-03-05 14:13:00
9:33 AM,23.2,20.1,88,30.02,10.0,East,13.8,-,N/A,,Overcast,90,2013-03-05 14:33:00
9:53 AM,23.9,20.7,87,30.02,10.0,ESE,12.7,17.3,N/A,,Overcast,110,2013-03-05 14:53:00
10:13 AM,24.8,21.2,86,30.01,10.0,ESE,11.5,-,N/A,,Overcast,110,2013-03-05 15:13:00
10:33 AM,25.7,20.8,82,30.00,10.0,East,11.5,16.1,N/A,,Mostly Cloudy,90,2013-03-05 15:33:00
10:53 AM,27.5,21.9,80,29.99,10.0,East,13.8,18.4,N/A,,Mostly Cloudy,100,2013-03-05 15:53:00
11:13 AM,28.4,22.1,77,29.97,10.0,East,11.5,18.4,N/A,,Overcast,80,2013-03-05 16:13:00
11:33 AM,29.3,22.8,77,29.96,10.0,East,16.1,21.9,N/A,,Mostly Cloudy,80,2013-03-05 16:33:00
11:53 AM,30.0,22.8,75,29.97,10.0,East,12.7,21.9,N/A,,Mostly Cloudy,80,2013-03-05 16:53:00
12:13 PM,30.9,23.0,72,29.96,10.0,East,17.3,21.9,N/A,,Mostly Cloudy,80,2013-03-05 17:13:00
12:33 PM,31.1,23.0,72,29.95,10.0,ENE,16.1,20.7,N/A,,Scattered Clouds,70,2013-03-05 17:33:00
12:53 PM,31.6,23.4,71,29.94,10.0,ENE,15.0,19.6,N/A,,Mostly Cloudy,70,2013-03-05 17:53:00
1:13 PM,31.8,23.2,70,29.93,10.0,ENE,17.3,23.0,N/A,,Scattered Clouds,70,2013-03-05 18:13:00
1:33 PM,31.8,23.5,71,29.91,10.0,ENE,16.1,23.0,N/A,,Scattered Clouds,70,2013-03-05 18:33:00
1:53 PM,32.0,23.5,71,29.90,10.0,East,15.0,21.9,N/A,,Scattered Clouds,80,2013-03-05 18:53:00
2:13 PM,32.2,23.7,71,29.89,10.0,East,12.7,17.3,N/A,,Scattered Clouds,80,2013-03-05 19:13:00
2:33 PM,32.2,23.5,70,29.89,10.0,ENE,16.1,-,N/A,,Scattered Clouds,70,2013-03-05 19:33:00
2:53 PM,32.9,23.4,68,29.88,10.0,East,16.1,25.3,N/A,,Scattered Clouds,80,2013-03-05 19:53:00
3:13 PM,33.1,23.7,68,29.87,10.0,ENE,17.3,25.3,N/A,,Clear,70,2013-03-05 20:13:00
3:33 PM,32.9,24.3,71,29.86,10.0,ENE,19.6,26.5,N/A,,Scattered Clouds,60,2013-03-05 20:33:00
3:53 PM,32.7,23.7,69,29.86,10.0,ENE,15.0,21.9,N/A,,Scattered Clouds,70,2013-03-05 20:53:00
4:13 PM,32.5,24.3,72,29.84,10.0,ENE,16.1,21.9,N/A,,Scattered Clouds,70,2013-03-05 21:13:00
4:33 PM,32.2,24.1,72,29.84,10.0,ENE,18.4,24.2,N/A,,Scattered Clouds,70,2013-03-05 21:33:00
4:53 PM,32.0,23.9,72,29.83,10.0,ENE,16.1,20.7,N/A,,Clear,70,2013-03-05 21:53:00
5:13 PM,32.2,24.4,73,29.84,10.0,ENE,15.0,19.6,N/A,,Scattered Clouds,60,2013-03-05 22:13:00
5:33 PM,32.0,24.6,74,29.84,10.0,NE,15.0,24.2,N/A,,Mostly Cloudy,50,2013-03-05 22:33:00
5:53 PM,31.6,25.2,77,29.84,10.0,NE,16.1,23.0,N/A,,Overcast,50,2013-03-05 22:53:00
6:13 PM,30.9,25.5,80,29.85,10.0,NE,15.0,23.0,N/A,,Overcast,40,2013-03-05 23:13:00
6:33 PM,30.0,25.7,84,29.87,10.0,NE,13.8,18.4,N/A,,Overcast,50,2013-03-05 23:33:00
6:53 PM,29.3,25.3,85,29.87,10.0,NE,17.3,21.9,N/A,,Overcast,50,2013-03-05 23:53:00
7:13 PM,28.9,25.2,86,29.87,10.0,NE,13.8,24.2,N/A,,Overcast,40,2013-03-06 00:13:00
7:33 PM,28.4,24.8,86,29.88,10.0,NE,15.0,20.7,N/A,,Overcast,50,2013-03-06 00:33:00
7:53 PM,28.4,24.4,85,29.89,10.0,NE,18.4,23.0,N/A,,Overcast,50,2013-03-06 00:53:00
8:13 PM,28.2,24.3,85,29.89,10.0,NE,16.1,20.7,N/A,,Overcast,50,2013-03-06 01:13:00
8:33 PM,27.9,24.6,88,29.89,10.0,NE,17.3,21.9,N/A,,Overcast,50,2013-03-06 01:33:00
8:53 PM,27.7,24.6,88,29.89,10.0,NE,15.0,21.9,N/A,,Overcast,50,2013-03-06 01:53:00
9:13 PM,27.5,24.8,90,29.89,10.0,NE,17.3,23.0,N/A,,Overcast,40,2013-03-06 02:13:00
9:33 PM,27.1,24.8,91,29.89,10.0,NE,17.3,27.6,N/A,,Overcast,50,2013-03-06 02:33:00
9:53 PM,27.1,24.8,91,29.90,10.0,NE,18.4,28.8,N/A,,Overcast,40,2013-03-06 02:53:00
10:13 PM,27.1,24.8,91,29.90,10.0,NE,19.6,29.9,N/A,,Overcast,40,2013-03-06 03:13:00
10:33 PM,27.1,24.8,91,29.91,10.0,NE,17.3,28.8,N/A,,Overcast,50,2013-03-06 03:33:00
10:53 PM,27.3,24.8,90,29.91,10.0,NE,17.3,27.6,N/A,,Overcast,50,2013-03-06 03:53:00
11:13 PM,27.5,24.8,90,29.91,10.0,NE,15.0,21.9,N/A,,Overcast,40,2013-03-06 04:13:00
11:33 PM,28.0,24.8,88,29.91,10.0,NE,11.5,19.6,N/A,,Overcast,40,2013-03-06 04:33:00
11:53 PM,28.4,25.2,88,29.91,10.0,NNE,15.0,19.6,N/A,,Overcast,30,2013-03-06 04:53:00
11:59 PM,28.4,25.2,88,29.91,10.0,NNE,12.7,19.6,N/A,,Overcast,30,2013-03-06 04:59:00